DW8004 Weather Reports


time (UTC)temp
F
wind
direction
speed
knots
gust
knots
rain 1hr
in
rain 24hr
in
rain mn
in
humidity
%
barometer
mb
20260506201533 56 331 0.0 0.0 0.10 0.64 0.64 97 1003.3
20260506200022 56 268 0.0 0.0 0.09 0.60 0.61 97 1003.4
20260506194623 56 34 0.0 0.0 0.07 0.56 0.56 97 1003.5
20260506193053 56 57 0.0 0.0 0.09 0.55 0.55 97 1003.7
20260506191549 56 36 0.0 0.0 0.13 0.54 0.54 97 1003.8
20260506190038 56 38 0.0 0.0 0.16 0.51 0.51 97 1004.0
20260506184555 56 136 0.0 0.0 0.23 0.49 0.49 97 1004.0
20260506183109 56 106 0.0 0.0 0.23 0.46 0.46 97 1004.0
20260506181554 56 261 0.0 0.0 0.23 0.40 0.40 96 1004.4
20260506180029 56 126 0.0 0.0 0.23 0.35 0.35 96 1004.4
20260506174604 56 119 0.0 0.0 0.18 0.26 0.27 96 1004.6
20260506173026 56 86 0.0 0.0 0.16 0.22 0.22 96 1004.8
20260506171608 56 161 0.0 0.0 0.13 0.17 0.17 95 1005.0
20260506170029 56 63 0.0 0.0 0.10 0.12 0.12 95 1005.3
20260506164510 56 40 0.0 0.0 0.07 0.08 0.08 95 1005.6
20260506163040 57 86 0.0 0.0 0.04 0.05 0.06 94 1005.5
20260506161546 57 94 0.0 0.0 0.04 0.04 0.04 93 1005.6
20260506160009 57 24 0.0 0.0 0.02 0.02 0.02 92 1005.5
20260506154502 58 41 0.0 0.0 0.01 0.01 0.01 91 1005.7
20260506153100 58 170 0.0 0.0 0.01 0.01 0.01 90 1005.8
20260506151610 59 46 0.0 0.0 0.00 0.00 0.00 88 1005.9
20260506150048 59 173 0.0 0.0 0.00 0.00 0.00 86 1006.2
20260506144603 60 248 0.0 0.0 0.00 0.00 0.00 83 1006.2
20260506143053 60 279 0.0 0.0 0.00 0.00 0.00 83 1006.4
20260506141526 60 32 0.0 0.0 0.00 0.00 0.00 83 1006.2
20260506140010 60 57 0.0 0.0 0.00 0.00 0.00 84 1006.0
20260506134558 59 49 0.0 0.0 0.00 0.00 0.00 85 1005.9
20260506133051 57 77 0.0 0.0 0.00 0.00 0.00 89 1005.8
20260506131546 56 82 0.0 0.0 0.00 0.00 0.00 91 1006.1
20260506130115 55 142 0.0 0.0 0.00 0.00 0.00 94 1006.2
20260506124546 53 117 0.0 0.0 0.00 0.00 0.00 95 1006.5
20260506123010 52 117 0.0 0.0 0.00 0.00 0.00 96 1006.6
20260506121604 52 66 0.0 0.0 0.00 0.00 0.00 97 1006.7
20260506120042 51 77 0.0 0.0 0.00 0.01 0.00 97 1006.7
20260506114508 49 128 0.0 0.0 0.00 0.01 0.00 97 1006.4
20260506113023 49 117 0.0 0.0 0.00 0.01 0.00 96 1006.6
20260506111540 48 123 0.0 0.0 0.00 0.01 0.00 96 1006.8
20260506110010 48 182 0.0 0.0 0.00 0.01 0.00 96 1006.8
20260506104614 47 182 0.0 0.0 0.00 0.01 0.00 96 1006.9
20260506103058 47 182 0.0 0.0 0.00 0.01 0.00 96 1006.9
20260506101523 47 182 0.0 0.0 0.00 0.01 0.00 96 1006.8
20260506100104 47 182 0.0 0.0 0.00 0.01 0.00 95 1006.8
20260506094526 47 182 0.0 0.0 0.00 0.01 0.00 95 1006.7